Date,TemperatureHighF,TemperatureAvgF,TemperatureLowF,DewpointHighF,DewpointAvgF,DewpointLowF,HumidityHigh,HumidityAvg,HumidityLow,PressureMaxIn,PressureMinIn,WindSpeedMaxMPH,WindSpeedAvgMPH,GustSpeedMaxMPH,PrecipitationSumIn
2013-1-1,32.1,23.0,11.2,25.0,11.6,0.4,84,62,47,29.89,29.61,22,9,37,0.00
2013-1-2,21.4,11.4,0.3,8.5,0.3,-10.6,79,61,45,30.09,29.86,32,8,38,0.00
2013-1-3,18.0,7.4,-0.8,1.1,-4.7,-10.8,79,58,34,30.11,29.95,14,3,19,0.00
2013-1-4,34.1,22.6,5.0,24.0,14.9,-0.5,87,73,55,29.94,29.72,29,7,32,0.00
2013-1-5,32.1,27.3,15.9,25.3,16.6,11.4,83,65,45,30.23,29.72,28,8,33,0.00
2013-1-6,33.8,25.2,15.7,25.9,19.8,11.7,92,80,65,30.18,29.89,7,1,10,0.01
2013-1-7,32.5,24.0,11.1,29.7,16.5,7.7,95,74,46,30.35,29.90,14,3,23,0.00
2013-1-8,39.5,22.8,7.7,23.5,15.9,4.1,92,76,48,30.33,30.19,13,2,18,0.04
2013-1-9,39.6,27.0,17.7,28.7,22.4,15.5,94,83,60,30.38,29.92,15,1,27,0.01
2013-1-10,40.2,36.9,29.4,31.7,24.6,21.9,80,61,51,30.49,29.92,25,8,35,0.13
2013-1-11,35.0,29.3,21.4,32.0,24.9,19.2,98,84,66,30.49,30.21,5,1,7,0.14
2013-1-12,37.5,34.5,32.5,37.5,34.4,32.0,100,100,98,30.19,30.09,4,0,5,0.11
2013-1-13,38.8,35.9,33.7,38.8,35.9,33.7,100,100,100,30.11,29.93,3,1,5,0.01
2013-1-14,53.2,40.2,32.1,50.8,34.9,24.0,100,83,52,30.20,29.82,21,4,28,0.01
2013-1-15,36.3,31.2,26.6,28.2,23.0,19.5,92,73,51,30.29,30.19,15,2,18,0.00
2013-1-16,29.5,28.8,27.9,28.3,25.3,0.0,98,87,74,30.21,29.76,6,1,7,0.00
2013-1-17,37.2,26.3,17.2,30.2,18.1,-1.4,98,73,43,30.10,29.76,21,5,24,0.11
2013-1-18,18.1,11.9,5.8,4.2,-6.3,-15.4,74,44,30,30.38,30.05,22,5,26,0.00
2013-1-19,32.4,22.6,15.6,22.4,13.0,3.5,77,66,55,30.30,29.81,6,2,10,0.00
2013-1-20,45.2,31.0,21.3,32.9,18.7,-0.6,96,63,36,29.86,29.45,33,12,47,0.04
2013-1-21,24.7,18.5,9.0,16.8,4.2,-4.2,90,56,33,30.03,29.78,20,4,26,0.00
2013-1-22,20.2,15.0,2.0,15.6,6.1,-4.9,87,69,38,30.02,29.74,27,6,29,0.01
2013-1-23,3.7,-0.2,-5.2,-4.2,-15.8,-19.8,77,48,33,30.13,30.01,22,6,23,0.00
2013-1-24,10.2,2.2,-6.5,-9.9,-16.5,-21.3,53,41,27,30.20,30.03,29,10,41,0.00
2013-1-25,16.7,9.3,1.3,-4.2,-8.4,-11.6,59,44,30,30.26,30.04,18,7,25,0.00
2013-1-26,17.3,12.4,7.2,0.1,-4.4,-10.4,67,47,30,30.18,29.99,18,6,24,0.00
2013-1-27,20.8,13.7,7.9,-0.5,-4.0,-10.8,65,46,29,30.44,30.17,19,6,27,0.00
2013-1-28,22.1,16.4,10.2,17.0,4.7,-6.7,90,62,30,30.42,30.03,10,2,13,0.00
2013-1-29,30.7,23.7,11.7,29.5,19.9,8.6,98,85,69,30.18,30.04,6,1,6,0.06
2013-1-30,38.5,33.9,30.3,38.5,33.8,29.8,100,100,98,30.12,29.39,4,0,6,0.39
2013-1-31,55.9,40.3,25.7,55.9,31.4,9.2,100,73,42,29.47,28.80,38,16,46,0.61
2013-2-1,27.0,21.9,14.9,17.4,7.1,1.2,74,53,41,30.03,29.48,29,13,34,0.00
2013-2-2,23.6,17.9,10.4,13.8,5.6,0.0,78,59,40,30.18,30.01,12,4,18,0.00
2013-2-3,26.3,21.3,14.0,17.0,13.0,10.1,90,71,51,30.01,29.68,10,2,15,0.00
2013-2-4,26.7,20.7,14.8,17.0,4.8,-4.8,86,53,27,29.85,29.67,33,11,38,0.00
2013-2-5,25.0,16.1,5.6,10.9,1.1,-3.9,71,52,29,30.00,29.86,15,2,16,0.00
2013-2-6,35.0,23.2,15.7,21.0,10.9,-11.5,88,62,26,30.27,29.90,19,5,31,0.01
2013-2-7,21.6,15.6,8.6,2.6,-6.5,-11.6,52,37,22,30.52,30.27,18,5,22,0.00
2013-2-8,17.2,14.9,11.7,12.7,7.5,-4.1,86,74,39,30.49,29.83,23,8,30,0.00
2013-2-9,19.2,16.3,13.3,16.8,8.5,-1.2,90,72,50,30.17,29.75,23,8,29,0.00
2013-2-10,33.7,19.4,10.4,10.6,-0.0,-6.9,78,45,23,30.37,30.17,17,5,24,0.09
2013-2-11,28.7,19.9,8.6,28.5,17.0,3.7,99,88,70,30.33,29.59,6,1,8,0.00
2013-2-12,41.9,35.0,27.6,31.3,27.8,24.3,100,76,56,29.78,29.56,23,9,33,0.34
2013-2-13,38.5,31.1,23.9,24.0,21.0,18.4,85,67,47,29.81,29.71,16,4,21,0.07
2013-2-14,37.6,27.8,20.0,23.6,19.7,17.3,91,73,46,29.96,29.68,18,2,21,0.01
2013-2-15,48.6,31.8,19.2,28.0,22.6,16.4,90,71,39,29.95,29.84,12,2,20,0.01
2013-2-16,37.3,31.8,24.7,25.8,18.9,3.9,82,60,40,29.92,29.73,14,5,18,0.00
2013-2-17,24.7,18.2,12.8,11.2,3.6,-1.1,76,53,39,29.72,29.37,30,12,40,0.00
2013-2-18,25.6,17.3,9.0,1.5,-3.5,-10.6,62,42,23,30.06,29.61,33,14,40,0.00
2013-2-19,37.9,26.9,13.1,32.7,10.9,-7.1,99,54,24,30.12,29.53,11,4,14,0.15
2013-2-20,33.4,28.9,20.0,33.4,21.1,12.4,100,73,55,29.69,29.46,25,11,29,0.03
2013-2-21,24.7,21.2,16.7,15.3,10.5,5.1,79,63,51,30.18,29.69,22,10,30,0.00
2013-2-22,38.2,28.1,16.9,22.4,17.8,13.9,90,67,41,30.40,30.21,13,2,19,0.00
2013-2-23,33.5,30.7,26.7,32.0,27.5,21.7,100,88,75,30.30,29.95,5,2,10,0.04
2013-2-24,32.9,31.0,29.0,31.9,30.5,28.3,100,98,95,29.94,29.74,4,0,5,0.02
2013-2-25,38.3,31.1,22.2,33.9,29.6,21.0,100,94,79,30.19,29.88,7,1,12,0.54
2013-2-26,38.8,34.3,30.3,34.1,30.5,27.0,100,86,71,30.32,30.18,10,2,13,0.41
2013-2-27,34.9,32.4,30.7,34.1,30.7,27.6,98,94,83,30.17,29.64,14,7,24,0.16
2013-2-28,43.9,35.3,30.7,36.4,33.1,29.2,100,92,69,29.63,29.50,7,1,12,0.65
2013-3-1,37.8,33.7,28.4,34.9,29.0,25.5,100,84,67,29.65,29.50,11,3,15,0.02
2013-3-2,41.9,33.9,29.1,27.4,25.5,23.8,91,72,56,29.64,29.59,16,5,20,0.00
2013-3-3,40.5,32.0,27.6,28.1,25.7,22.2,91,78,60,29.62,29.53,17,5,20,0.05
2013-3-4,34.0,28.6,25.8,22.7,20.4,18.5,79,71,61,29.75,29.56,24,9,26,0.01
2013-3-5,42.8,33.7,26.1,32.1,25.5,19.0,92,73,52,30.06,29.75,14,3,21,0.00
2013-3-6,36.6,34.1,31.3,32.2,28.6,24.4,96,81,67,30.19,30.06,24,8,24,0.03
2013-3-7,34.3,31.8,30.0,28.6,24.9,22.5,93,76,65,30.13,30.05,18,7,23,0.02
2013-3-8,44.9,34.6,29.5,28.3,22.7,17.5,93,64,34,30.05,30.01,19,7,21,0.04
2013-3-9,55.6,41.8,25.3,26.0,18.2,9.0,89,45,16,30.33,30.18,5,1,7,0.00
2013-3-10,46.7,33.7,21.6,29.4,25.6,20.1,95,75,44,30.39,30.25,8,2,9,0.00
2013-3-11,49.1,38.7,30.0,34.2,30.1,28.4,96,73,45,30.27,30.08,13,2,14,0.00
2013-3-12,47.6,40.4,34.1,47.6,39.8,31.8,100,98,90,30.09,29.68,8,2,9,0.58
2013-3-13,47.3,38.8,28.2,43.6,31.5,24.6,100,78,47,29.73,29.67,20,6,23,0.01
2013-3-14,35.3,27.6,17.7,26.6,17.2,2.2,95,66,43,29.80,29.64,24,8,27,0.00
2013-3-15,37.2,25.1,15.1,28.8,11.0,0.2,96,58,27,29.81,29.58,22,8,32,0.00
2013-3-16,32.4,27.0,19.1,19.7,12.6,7.2,82,56,36,29.86,29.64,16,5,19,0.05
2013-3-17,30.0,22.4,14.1,12.5,4.1,-5.3,83,49,25,30.29,29.87,31,7,43,0.01
2013-3-18,35.3,23.8,9.5,18.7,2.1,-5.5,68,41,20,30.43,30.22,9,2,12,0.00
2013-3-19,31.3,27.3,23.6,28.4,24.8,17.6,95,90,60,30.22,29.70,16,6,23,0.02
2013-3-20,35.6,28.3,22.9,24.1,20.6,17.4,94,74,51,29.72,29.63,26,8,30,0.21
2013-3-21,38.5,27.8,17.2,18.6,14.5,9.0,84,60,29,29.74,29.57,9,2,12,0.44
2013-3-22,37.8,29.8,21.0,23.0,16.2,12.5,76,58,38,29.67,29.58,17,5,23,0.01
2013-3-23,39.9,31.7,23.3,22.8,19.7,15.9,79,62,41,29.72,29.57,31,11,44,0.01
2013-3-24,42.6,35.4,26.9,24.6,22.9,21.4,80,61,43,29.80,29.71,19,6,25,0.00
2013-3-25,43.6,32.2,21.1,29.2,24.4,19.4,94,75,49,29.76,29.55,15,3,19,0.00
2013-3-26,47.3,38.6,31.3,28.5,22.3,15.4,86,55,28,29.74,29.56,16,3,18,0.00
2013-3-27,48.6,37.2,25.3,32.3,26.0,21.5,88,66,38,29.85,29.73,20,4,23,0.00
2013-3-28,45.8,38.5,32.4,35.5,31.9,29.5,100,79,54,29.99,29.85,7,1,14,0.01
2013-3-29,50.4,41.2,32.7,35.7,32.0,29.2,92,71,49,30.01,29.95,19,4,22,0.00
2013-3-30,51.9,40.5,29.1,31.2,23.1,11.5,94,55,23,30.07,29.98,15,3,22,0.00
2013-3-31,56.5,39.5,24.1,38.5,23.4,16.4,98,58,24,30.09,29.77,15,3,20,0.03
2013-4-1,54.2,39.9,31.2,42.8,33.5,12.6,100,80,39,29.76,29.45,34,7,34,0.63
2013-4-2,35.3,30.2,24.8,14.2,10.0,6.0,51,43,31,29.83,29.70,36,15,36,0.00
2013-4-3,42.1,33.5,25.7,18.5,9.5,3.7,56,38,21,30.08,29.82,27,15,38,0.00
2013-4-4,53.5,40.1,29.7,22.4,12.6,5.8,61,35,17,30.22,29.94,20,8,24,0.00
2013-4-5,55.4,41.9,33.5,27.1,22.9,18.9,73,49,26,29.93,29.64,20,6,26,0.00
2013-4-6,40.3,31.9,24.7,18.6,6.0,-0.5,58,35,18,30.31,29.84,22,8,33,0.00
2013-4-7,56.5,39.4,26.0,33.4,20.8,9.3,73,50,24,30.29,29.90,14,4,23,0.00
2013-4-8,58.9,46.4,35.0,36.9,32.4,24.7,97,62,28,30.07,29.88,16,5,24,0.00
2013-4-9,55.9,45.4,40.1,46.8,39.3,33.8,99,81,57,30.06,29.88,16,3,27,0.28
2013-4-10,56.7,46.9,40.3,48.9,42.9,40.3,100,88,61,29.95,29.85,11,2,17,0.76
2013-4-11,47.9,43.0,39.6,44.3,29.2,14.0,100,63,29,30.13,29.83,16,4,20,0.08
2013-4-12,39.6,33.2,30.7,31.7,25.5,16.6,97,76,39,30.19,29.85,12,5,19,0.04
2013-4-13,50.7,38.8,30.7,37.6,33.6,30.0,99,83,51,29.88,29.76,10,2,14,0.47
2013-4-14,51.1,41.6,33.2,37.2,33.4,29.3,97,74,48,30.17,29.87,23,3,25,0.01
2013-4-15,56.9,42.4,28.8,35.2,30.2,24.8,99,67,30,30.35,30.18,13,2,14,0.00
2013-4-16,64.5,48.0,33.4,52.2,41.0,32.4,98,79,42,30.35,29.94,23,4,23,0.06
2013-4-17,59.6,51.2,38.6,53.3,32.4,24.5,97,52,29,30.31,29.96,17,6,27,0.00
2013-4-18,58.9,46.1,30.4,37.3,30.2,21.2,95,58,30,30.42,30.09,10,2,16,0.00
2013-4-19,73.9,61.4,48.9,60.5,52.1,32.3,94,73,48,30.09,29.52,24,5,28,0.24
2013-4-20,61.0,48.4,38.3,59.6,34.3,19.1,100,62,34,30.17,29.56,27,12,35,0.27
2013-4-21,50.7,39.9,32.4,21.5,16.9,11.9,63,41,22,30.66,30.18,16,5,22,0.00
2013-4-22,52.0,40.1,29.1,31.1,23.5,13.8,87,56,24,30.75,30.60,17,3,21,0.00
2013-4-23,40.5,36.8,32.7,38.8,32.8,28.7,95,85,74,30.60,30.17,12,5,17,0.00
2013-4-24,75.6,55.8,40.1,50.6,42.8,35.3,97,66,27,30.16,29.68,12,3,15,0.00
2013-4-25,59.8,52.9,39.5,49.9,32.3,21.6,79,48,26,30.25,29.68,20,7,33,0.00
2013-4-26,58.7,46.4,33.1,40.8,30.4,24.0,91,57,28,30.40,30.26,17,3,17,0.00
2013-4-27,65.5,50.8,34.7,39.0,32.7,21.7,98,57,20,30.39,30.23,11,1,13,0.00
2013-4-28,69.8,52.5,35.9,38.8,35.2,30.6,97,58,24,30.30,30.15,10,2,16,0.00
2013-4-29,72.3,55.0,39.9,43.4,38.1,31.7,93,58,27,30.22,30.11,13,2,19,0.00
2013-4-30,72.0,59.1,47.4,44.3,35.8,29.4,79,46,23,30.33,30.19,12,2,16,0.00
2013-5-1,75.3,57.1,38.3,38.9,33.7,23.0,91,48,15,30.42,30.32,11,2,15,0.00
2013-5-2,77.9,54.5,42.8,44.2,37.2,26.4,90,56,20,30.48,30.32,14,3,22,0.00
2013-5-3,66.8,52.5,37.8,45.9,39.4,33.3,94,64,38,30.52,30.34,9,2,15,0.00
2013-5-4,70.9,54.5,42.1,45.7,39.3,26.1,100,64,19,30.34,30.21,10,3,15,0.00
2013-5-5,71.3,52.4,35.5,40.5,36.3,31.4,98,61,24,30.31,30.16,9,2,13,0.00
2013-5-6,75.3,56.2,38.3,48.5,38.9,28.6,98,60,19,30.23,30.07,12,2,16,0.00
2013-5-7,81.8,63.1,44.6,55.8,45.8,31.4,100,63,17,30.13,30.01,10,2,15,0.00
2013-5-8,75.4,62.8,52.5,60.2,56.1,52.3,100,81,48,30.17,30.04,11,2,16,0.05
2013-5-9,64.7,58.9,55.4,60.0,57.4,55.4,100,95,81,30.03,29.85,8,3,13,0.29
2013-5-10,75.6,62.8,55.9,66.6,58.0,54.4,100,86,48,29.91,29.84,14,1,16,0.13
2013-5-11,67.4,60.9,56.6,63.7,59.5,55.5,100,95,80,29.85,29.62,10,3,17,0.32
2013-5-12,67.6,57.9,46.1,59.2,47.2,27.4,100,71,40,29.73,29.51,23,7,32,0.00
2013-5-13,52.8,46.1,40.6,35.9,29.3,24.8,75,53,36,30.01,29.73,23,10,33,0.00
2013-5-14,57.8,47.4,36.5,35.0,29.0,21.6,88,53,26,30.03,29.92,21,4,25,0.00
2013-5-15,66.0,48.0,33.7,50.9,37.7,24.9,100,74,26,30.01,29.61,12,2,21,0.16
2013-5-16,77.4,61.4,48.9,54.5,43.1,31.5,100,60,20,29.78,29.56,26,7,35,0.00
2013-5-17,65.3,55.7,47.1,43.3,38.4,32.7,78,54,30,30.18,29.79,20,5,25,0.00
2013-5-18,70.4,56.2,42.9,46.8,41.8,31.0,97,64,24,30.27,30.18,10,2,15,0.00
2013-5-19,55.4,24.4,0.0,54.6,23.7,0.0,100,46,89,30.29,30.18,6,1,9,0.26
2013-5-20,71.3,60.9,52.8,63.4,57.8,52.8,100,91,70,30.17,29.91,12,2,14,0.29
2013-5-21,62.4,55.8,50.4,57.6,54.4,49.5,100,95,83,30.10,29.89,12,4,20,0.47
2013-5-22,59.0,53.7,50.2,56.0,52.9,50.1,100,97,82,29.96,29.87,9,3,13,0.50
2013-5-23,66.9,58.2,51.1,66.9,57.7,51.1,100,98,89,29.90,29.73,11,2,13,0.29
2013-5-24,68.8,60.0,47.7,67.3,56.8,44.3,100,90,68,29.82,29.58,19,5,22,0.34
2013-5-25,48.3,45.3,35.9,47.5,43.7,34.9,98,94,78,29.83,29.70,17,5,20,1.09
2013-5-26,54.1,45.6,36.6,40.5,37.9,35.6,96,76,57,30.01,29.67,25,9,30,0.10
2013-5-27,67.8,53.2,38.3,40.8,35.6,27.2,98,58,23,30.15,30.01,26,7,33,0.00
2013-5-28,73.5,56.3,39.5,46.5,41.1,34.1,98,63,27,30.22,30.11,13,2,16,0.00
2013-5-29,56.5,53.7,50.7,56.2,52.4,44.7,100,95,79,30.14,29.97,8,2,11,0.25
2013-5-30,85.1,69.2,55.7,67.6,60.9,55.7,100,79,39,30.02,29.96,14,3,23,0.00
2013-5-31,91.4,74.8,59.9,67.2,61.8,53.4,100,70,30,30.05,29.87,16,4,20,0.00
2013-6-1,92.1,76.8,63.5,68.5,65.0,60.0,99,70,37,29.91,29.77,14,2,18,0.00
2013-6-2,91.4,74.3,66.0,69.8,67.4,60.6,100,82,43,29.78,29.58,18,4,36,0.75
2013-6-3,78.8,68.0,56.7,67.4,59.9,49.4,100,78,41,29.77,29.67,20,5,24,0.00
2013-6-4,65.2,57.8,49.4,50.9,43.3,39.1,86,60,41,30.05,29.77,23,7,35,0.00
2013-6-5,73.0,59.9,47.0,47.3,40.7,31.3,94,55,23,30.15,30.04,16,3,18,0.00
2013-6-6,73.0,61.5,52.9,53.9,47.9,38.6,89,63,37,30.17,30.06,12,2,16,0.00
2013-6-7,56.9,52.8,49.5,54.5,51.5,48.2,100,95,82,30.08,29.88,12,4,17,0.93
2013-6-8,70.9,60.6,52.0,59.8,55.9,52.0,100,86,64,29.96,29.67,21,6,23,1.34
2013-6-9,76.1,65.1,54.4,57.7,54.4,50.1,100,72,41,30.13,29.97,15,5,21,0.00
2013-6-10,69.8,60.5,52.8,59.5,56.1,52.1,100,87,64,30.17,30.00,5,1,9,0.12
2013-6-11,59.2,55.8,53.9,57.2,55.4,53.9,100,99,87,30.00,29.56,15,4,21,0.90
2013-6-12,68.1,60.4,54.8,56.2,53.8,51.5,100,80,60,29.78,29.53,17,5,21,0.01
2013-6-13,66.8,58.7,51.6,59.0,54.1,50.5,100,86,60,29.77,29.68,7,1,11,0.11
2013-6-14,74.2,63.0,53.8,58.5,53.8,47.0,100,76,39,29.74,29.65,5,0,11,0.00
2013-6-15,75.6,65.2,54.7,54.2,44.9,35.8,86,51,27,29.89,29.74,18,4,22,0.00
2013-6-16,73.9,61.4,50.7,61.5,54.9,49.0,97,82,50,29.89,29.67,12,2,16,0.01
2013-6-17,81.4,66.2,56.3,61.8,58.2,53.5,100,78,39,29.84,29.71,18,5,26,0.01
2013-6-18,63.4,58.8,55.0,58.5,56.0,52.2,100,91,71,29.95,29.84,5,1,10,0.05
2013-6-19,73.9,61.6,49.5,55.3,47.2,39.5,100,65,30,30.12,29.90,11,2,16,0.00
2013-6-20,77.7,62.5,47.3,53.8,48.5,43.4,96,64,30,30.23,30.12,11,2,16,0.00
2013-6-21,82.6,66.1,52.8,60.5,53.6,47.5,95,68,31,30.20,30.15,8,1,13,0.00
2013-6-22,78.8,68.0,58.1,69.4,62.2,56.2,97,83,58,30.17,30.05,9,1,12,0.00
2013-6-23,84.1,70.3,63.7,76.1,68.6,63.7,100,95,65,30.10,29.90,12,2,25,0.94
2013-6-24,90.5,76.6,66.6,71.1,68.4,64.7,100,80,45,29.95,29.81,15,5,29,0.24
2013-6-25,88.2,73.5,65.2,73.2,68.4,65.1,100,87,49,29.88,29.68,18,4,21,0.13
2013-6-26,76.8,69.0,63.9,72.4,68.4,63.9,100,98,76,29.82,29.67,7,2,14,0.28
2013-6-27,70.8,65.2,61.0,67.7,64.2,61.0,100,97,88,29.82,29.74,13,3,15,0.01
2013-6-28,64.7,61.4,57.5,64.4,61.1,57.5,100,99,93,29.75,29.48,19,7,25,0.84
2013-6-29,83.4,70.2,63.9,72.2,67.0,63.9,100,91,56,29.64,29.48,24,4,27,0.31
2013-6-30,82.8,71.6,66.0,73.1,68.6,66.0,100,91,63,29.88,29.64,22,2,25,0.30
2013-7-1,76.1,71.3,67.3,72.0,69.8,67.3,100,95,82,30.02,29.88,7,2,10,0.17
2013-7-2,72.3,65.2,61.2,72.3,65.2,61.2,100,100,100,30.18,30.01,12,3,16,0.58
2013-7-3,85.7,71.7,61.2,75.5,68.4,61.2,100,91,64,30.17,30.04,12,2,17,0.04
2013-7-4,89.5,78.1,68.9,76.2,72.2,68.9,100,84,57,30.14,30.00,12,2,16,0.00
2013-7-5,91.0,77.5,70.4,75.2,71.6,70.2,100,84,53,30.09,29.98,12,2,17,0.00
2013-7-6,86.3,77.6,70.1,72.6,69.6,64.7,100,78,54,30.01,29.91,19,5,20,0.00
2013-7-7,86.1,74.9,67.9,73.2,68.3,64.2,100,81,50,29.97,29.86,13,1,15,0.02
2013-7-8,79.8,72.3,66.0,73.3,70.6,66.0,100,95,75,30.03,29.87,11,2,18,1.47
2013-7-9,74.6,68.8,65.6,69.9,67.4,65.6,100,96,79,30.08,30.02,9,1,10,0.01
2013-7-10,72.1,68.7,66.3,71.1,68.0,65.7,100,98,90,30.04,29.74,10,2,12,0.56
2013-7-11,81.1,73.3,65.3,74.6,68.5,61.3,100,86,59,29.92,29.71,8,1,10,0.00
2013-7-12,79.8,68.7,59.9,64.3,60.4,56.6,97,77,45,30.18,29.93,11,1,12,0.00
2013-7-13,79.0,69.6,60.5,70.2,64.3,60.3,100,85,56,30.29,30.18,6,1,11,0.09
2013-7-14,86.3,75.3,66.8,73.3,69.9,66.8,100,84,58,30.26,30.15,7,1,10,0.00
2013-7-15,91.0,78.4,67.9,71.5,68.2,64.4,100,74,43,30.17,30.04,12,2,18,0.00
2013-7-16,89.9,79.3,69.3,70.0,66.7,63.8,91,68,44,30.12,30.07,13,2,18,0.00
2013-7-17,92.1,78.4,67.6,74.4,69.7,65.5,100,77,42,30.14,29.92,17,2,20,0.10
2013-7-18,89.9,76.6,70.3,74.2,71.3,65.2,100,86,45,29.97,29.89,13,1,20,0.39
2013-7-19,92.7,79.8,70.4,77.1,72.0,66.9,100,80,45,29.89,29.62,21,5,27,0.02
2013-7-20,85.5,75.6,68.3,73.2,68.7,64.8,100,81,52,29.74,29.58,21,5,24,0.04
2013-7-21,80.1,70.3,63.1,68.1,63.8,59.0,99,81,50,29.96,29.75,6,1,10,0.00
2013-7-22,74.4,67.9,64.2,70.6,66.1,60.0,100,94,81,30.00,29.88,10,2,12,0.25
2013-7-23,73.3,65.8,62.6,69.7,65.2,60.0,100,98,83,29.87,29.50,8,2,13,1.96
2013-7-24,78.1,68.6,56.2,69.5,61.2,47.7,100,79,54,29.95,29.54,20,4,24,0.00
2013-7-25,70.6,60.9,50.2,60.8,53.2,46.7,93,76,56,30.08,29.95,10,1,13,0.00
2013-7-26,70.1,65.3,60.9,69.0,63.0,57.4,100,93,75,30.06,29.90,9,1,11,0.27
2013-7-27,81.4,69.3,59.6,66.7,60.5,53.0,100,77,39,29.99,29.93,12,3,15,0.00
2013-7-28,78.8,68.6,62.0,70.0,65.3,62.0,100,90,67,29.98,29.93,17,2,18,0.06
2013-7-29,81.6,68.7,63.1,69.1,66.1,62.9,100,92,60,30.01,29.91,31,2,31,0.95
2013-7-30,77.6,67.6,58.7,64.3,57.9,49.2,100,75,38,30.06,29.99,15,4,20,0.01
2013-7-31,79.4,67.4,56.6,62.2,58.2,52.0,100,75,40,30.10,29.99,7,1,12,0.00
2013-8-1,79.9,67.3,59.2,66.9,63.0,59.1,100,88,52,30.00,29.82,20,2,20,0.30
2013-8-2,79.9,69.3,63.4,67.7,61.8,52.5,100,80,39,29.81,29.72,18,4,24,0.20
2013-8-3,77.9,66.5,58.6,62.6,57.9,51.4,100,77,40,29.80,29.71,19,4,27,0.03
2013-8-4,73.2,64.1,56.6,58.6,55.2,51.6,100,75,50,29.84,29.74,18,4,21,0.00
2013-8-5,71.8,61.4,53.5,53.8,46.9,33.7,91,63,26,30.02,29.84,18,5,26,0.00
2013-8-6,75.3,62.3,49.9,58.4,51.8,47.1,98,71,38,30.11,30.01,10,1,14,0.00
2013-8-7,77.9,65.4,53.3,60.2,55.5,50.7,98,73,39,30.15,30.05,12,2,17,0.00
2013-8-8,82.0,69.8,61.2,71.3,65.3,56.7,100,87,61,30.05,29.94,9,2,16,0.06
2013-8-9,74.0,71.4,67.8,74.0,70.7,67.8,100,98,91,29.96,29.69,12,2,16,0.47
2013-8-10,77.2,69.3,56.9,67.8,57.1,42.6,100,70,30,29.98,29.73,20,5,22,0.00
2013-8-11,76.7,64.2,52.5,58.7,53.5,48.7,99,72,38,30.03,29.95,12,3,19,0.00
2013-8-12,78.6,66.3,56.6,62.5,57.4,53.0,100,76,42,29.98,29.87,11,2,16,0.00
2013-8-13,68.9,64.4,58.9,68.0,63.7,58.9,100,98,81,29.87,29.64,11,0,13,0.72
2013-8-14,71.6,63.6,55.9,65.8,56.1,50.2,100,78,51,29.89,29.61,22,6,33,0.00
2013-8-15,74.0,61.3,51.1,56.7,52.1,48.1,100,75,40,30.06,29.90,16,3,21,0.00
2013-8-16,76.3,63.7,52.5,59.6,54.6,48.8,100,76,38,30.15,30.05,12,2,16,0.00
2013-8-17,78.1,65.8,55.7,59.9,55.6,49.5,100,74,38,30.24,30.15,11,1,16,0.00
2013-8-18,75.8,65.0,55.4,65.6,59.0,53.4,99,82,56,30.24,30.03,4,0,11,0.00
2013-8-19,81.4,68.7,57.5,63.5,59.8,55.7,100,77,44,30.03,29.89,12,2,17,0.00
2013-8-20,83.4,70.5,60.7,65.8,62.2,57.1,100,79,42,30.05,29.93,10,2,14,0.00
2013-8-21,85.7,71.9,61.3,68.3,64.0,59.2,100,79,44,30.10,29.95,10,2,13,0.00
2013-8-22,85.7,73.4,62.7,67.6,63.9,58.8,100,75,41,29.97,29.75,14,4,21,0.00
2013-8-23,77.4,69.0,56.5,65.1,54.5,46.0,89,62,35,30.12,29.76,15,4,20,0.00
2013-8-24,75.4,62.0,49.6,56.6,50.6,42.5,97,70,33,30.29,30.12,6,1,11,0.00
2013-8-25,79.8,64.8,51.7,59.8,54.5,46.2,100,73,32,30.33,30.11,14,2,16,0.00
2013-8-26,75.1,67.5,60.7,70.6,64.9,56.0,100,92,73,30.11,29.83,10,2,13,0.18
2013-8-27,81.2,71.9,65.6,68.3,66.4,61.1,100,85,52,29.85,29.79,9,1,9,0.00
2013-8-28,82.4,71.5,63.4,71.2,66.8,63.4,100,86,60,29.98,29.80,10,1,16,0.00
2013-8-29,71.8,65.1,0.0,66.0,62.5,0.0,100,90,82,30.06,29.92,7,2,11,0.04
2013-8-30,82.8,69.9,60.1,70.2,64.8,60.1,100,86,55,29.99,29.74,11,3,16,0.00
2013-8-31,78.3,72.1,67.3,73.5,69.6,66.6,100,92,77,29.78,29.70,10,2,19,0.33
2013-9-1,82.2,73.4,68.1,72.6,70.1,66.5,100,90,65,29.83,29.73,7,2,13,0.09
2013-9-2,72.3,69.8,67.9,71.6,69.7,67.9,100,100,94,29.82,29.69,10,3,12,0.77
2013-9-3,74.4,67.9,61.0,68.4,65.2,59.6,100,92,72,29.74,29.66,10,3,15,0.03
2013-9-4,76.8,66.8,58.1,61.5,57.2,50.1,99,74,41,29.85,29.74,24,5,25,0.00
2013-9-5,66.6,60.5,47.9,60.9,47.1,33.4,100,65,29,30.12,29.81,18,4,22,0.02
2013-9-6,67.4,54.4,42.6,51.2,43.3,35.5,97,70,36,30.21,30.03,16,3,18,0.00
2013-9-7,74.0,60.2,49.8,56.3,51.7,48.1,98,76,47,30.03,29.79,12,4,16,0.00
2013-9-8,63.2,58.5,47.0,58.0,47.3,39.5,94,68,44,30.05,29.70,20,4,30,0.02
2013-9-9,67.4,54.9,42.3,53.1,45.5,40.7,98,73,41,30.18,30.05,12,4,16,0.00
2013-9-10,67.1,59.5,51.7,65.5,58.2,50.3,100,96,86,30.08,29.98,7,1,9,0.16
2013-9-11,90.3,74.3,64.3,76.4,69.9,64.3,100,88,53,30.01,29.85,28,2,31,0.39
2013-9-12,73.9,69.1,66.6,73.7,68.9,66.6,100,100,94,29.90,29.62,14,1,17,1.13
2013-9-13,70.3,64.0,56.7,67.9,61.8,52.5,100,93,80,29.73,29.55,16,3,16,0.27
2013-9-14,63.7,57.5,50.1,53.1,51.3,48.8,100,81,62,30.01,29.72,17,6,24,0.00
2013-9-15,68.9,56.4,45.5,56.3,49.6,45.2,100,81,46,30.10,29.97,14,4,17,0.00
2013-9-16,62.1,54.8,41.5,55.8,47.7,34.3,100,78,54,30.24,29.95,19,4,26,0.03
2013-9-17,62.7,49.1,37.8,48.5,40.3,34.9,98,74,43,30.40,30.25,10,1,12,0.00
2013-9-18,70.4,55.2,43.6,53.3,46.6,39.1,100,77,33,30.29,30.09,13,3,16,0.00
2013-9-19,73.9,59.0,48.2,59.2,52.3,46.9,100,82,40,30.10,29.99,7,1,11,0.00
2013-9-20,74.6,60.1,49.4,60.5,54.7,49.4,100,84,54,30.07,29.95,7,1,7,0.00
2013-9-21,72.3,61.8,51.6,62.6,57.1,51.6,100,86,59,29.98,29.66,14,3,18,0.00
2013-9-22,68.3,61.5,49.6,66.3,54.4,41.3,100,79,51,29.79,29.53,21,7,26,0.51
2013-9-23,55.1,49.2,44.1,42.3,39.6,37.4,87,70,56,29.96,29.80,19,7,28,0.00
2013-9-24,59.9,51.6,44.2,45.0,41.0,37.7,88,68,49,29.94,29.80,24,6,29,0.00
2013-9-25,62.4,54.6,46.7,48.3,45.8,43.5,92,73,57,29.97,29.83,12,4,18,0.00
2013-9-26,65.6,53.7,41.9,54.1,46.8,41.4,99,79,51,30.11,29.97,5,1,7,0.00
2013-9-27,66.3,57.0,51.4,55.3,51.0,48.8,100,81,57,30.24,30.11,5,1,9,0.00
2013-9-28,70.1,56.7,47.9,55.0,51.3,47.9,100,84,47,30.32,30.24,5,0,6,0.00
2013-9-29,67.6,54.7,46.4,55.7,50.4,46.4,100,87,54,30.24,30.07,7,1,10,0.00
2013-9-30,67.4,53.7,44.3,54.8,49.9,44.3,100,89,58,30.10,29.94,6,1,9,0.00
2013-10-1,75.4,58.5,46.1,57.9,52.1,46.1,100,83,41,29.95,29.80,12,1,16,0.01
2013-10-2,77.2,62.9,52.6,60.1,56.4,52.6,100,82,48,29.89,29.77,18,4,29,0.00
2013-10-3,73.3,60.5,51.9,56.8,51.4,44.7,100,76,38,30.04,29.89,14,2,16,0.00
2013-10-4,67.8,56.8,47.9,56.0,51.7,47.4,100,84,52,30.07,30.00,6,0,7,0.00
2013-10-5,61.6,58.5,56.6,57.2,49.5,42.4,96,73,53,30.10,30.02,9,2,11,0.00
2013-10-6,58.3,51.6,47.7,55.2,46.1,37.6,100,83,56,30.23,30.09,12,4,17,0.17
2013-10-7,69.8,57.0,50.1,67.2,56.4,50.1,100,98,85,30.14,29.68,25,6,30,0.51
2013-10-8,60.2,52.0,41.5,52.4,42.4,34.4,100,73,38,30.36,29.85,16,4,23,0.00
2013-10-9,60.2,46.5,36.5,46.6,40.6,36.2,100,83,42,30.47,30.34,11,1,11,0.00
2013-10-10,61.5,49.4,39.8,50.6,45.4,39.8,100,88,53,30.34,30.16,5,0,14,0.00
2013-10-11,65.6,53.1,46.0,53.3,48.4,44.8,100,86,47,30.16,30.09,4,0,6,0.00
2013-10-12,55.3,51.3,45.8,53.4,49.9,45.7,100,95,88,30.39,30.16,12,2,16,0.00
2013-10-13,55.1,49.6,42.9,49.9,47.2,42.9,100,92,77,30.44,30.36,5,1,6,0.00
2013-10-14,64.0,52.3,41.6,53.8,47.7,41.6,100,86,58,30.36,30.19,10,2,14,0.00
2013-10-15,62.6,57.0,51.0,55.0,52.5,48.9,97,85,66,30.24,30.15,11,1,13,0.00
2013-10-16,58.7,54.4,49.9,52.1,50.7,49.0,100,87,73,30.15,29.87,7,1,10,0.00
2013-10-17,70.1,56.8,49.2,54.7,49.5,45.1,100,79,41,29.87,29.65,14,3,20,0.00
2013-10-18,62.7,55.8,48.6,54.4,48.6,34.9,100,79,49,29.84,29.55,23,7,30,0.38
2013-10-19,62.9,51.2,40.5,49.9,42.9,35.9,100,75,48,29.92,29.69,7,1,14,0.00
2013-10-20,58.0,51.5,44.1,49.0,38.4,28.2,98,64,33,29.95,29.62,30,10,33,0.01
2013-10-21,61.6,48.9,37.6,46.2,40.4,35.5,100,74,45,30.06,29.92,11,2,15,0.00
2013-10-22,53.8,47.8,39.2,53.0,45.6,38.9,100,92,73,29.90,29.67,10,2,13,0.16
2013-10-23,52.2,43.8,37.5,39.2,35.2,28.5,100,75,44,29.74,29.55,11,2,15,0.00
2013-10-24,47.6,42.3,34.3,35.9,31.2,27.6,95,66,46,29.82,29.59,26,10,31,0.01
2013-10-25,45.2,38.2,33.4,34.6,29.7,24.0,97,73,44,30.08,29.82,23,4,30,0.00
2013-10-26,46.7,39.7,30.4,35.2,31.0,26.6,96,73,46,30.09,29.81,14,3,21,0.00
2013-10-27,52.2,44.1,34.4,34.9,31.9,26.3,88,63,38,29.99,29.73,22,6,26,0.00
2013-10-28,52.8,40.7,32.9,37.3,29.2,19.7,92,65,45,30.31,29.99,26,6,31,0.00
2013-10-29,45.4,33.6,26.1,27.2,20.6,10.4,94,63,25,30.43,30.32,10,1,13,0.00
2013-10-30,46.8,36.6,30.1,34.7,29.4,23.4,99,76,54,30.33,30.16,17,3,17,0.00
2013-10-31,51.6,40.6,32.1,51.6,40.0,31.9,100,98,86,30.21,29.70,3,0,4,0.33
2013-11-1,66.4,59.2,51.9,62.6,55.8,42.2,100,89,60,29.69,29.31,29,7,34,0.51
2013-11-2,60.5,50.4,42.1,48.8,43.9,38.7,100,81,49,29.72,29.55,14,2,15,0.10
2013-11-3,41.8,36.8,27.6,38.5,22.8,13.5,90,59,33,30.40,29.72,15,6,21,0.00
2013-11-4,38.9,30.0,23.9,24.2,17.8,10.8,90,63,33,30.69,30.40,7,1,9,0.00
2013-11-5,44.1,33.9,25.3,31.3,26.5,22.6,96,76,46,30.69,30.47,15,2,17,0.00
2013-11-6,57.6,45.2,33.2,43.8,38.1,29.5,92,77,57,30.48,29.93,17,4,21,0.00
2013-11-7,55.3,49.2,38.0,55.3,44.2,28.1,100,83,62,29.95,29.62,18,4,21,0.11
2013-11-8,42.8,36.7,29.4,29.7,24.5,20.8,83,61,50,30.01,29.75,21,8,31,0.00
2013-11-9,40.3,36.9,34.4,28.3,22.4,19.0,71,56,43,30.13,29.98,15,5,24,0.00
2013-11-10,41.1,37.1,32.7,39.8,35.6,25.2,100,95,68,30.01,29.68,13,2,21,0.14
2013-11-11,44.3,39.6,35.5,35.4,28.9,24.3,91,66,47,30.04,29.76,21,6,27,0.02
2013-11-12,42.8,30.9,26.4,33.4,19.5,13.6,84,62,52,30.14,29.79,19,8,32,0.00
2013-11-13,30.3,26.1,21.1,17.1,12.0,7.6,67,55,39,30.25,30.06,19,6,25,0.00
2013-11-14,44.3,34.2,27.3,29.1,23.9,15.7,94,67,49,30.09,29.98,18,4,24,0.00
2013-11-15,50.8,36.8,29.0,29.3,25.3,17.7,95,67,27,30.15,30.05,9,1,10,0.00
2013-11-16,52.3,38.5,31.6,33.2,29.1,24.3,93,72,36,30.30,30.14,5,1,11,0.00
2013-11-17,46.0,39.0,29.5,46.0,38.5,29.0,100,98,87,30.30,29.83,12,4,14,0.22
2013-11-18,59.0,52.0,43.1,59.0,45.1,34.2,100,80,48,29.82,29.42,25,7,36,0.35
2013-11-19,35.2,32.5,30.0,18.3,16.2,13.4,57,51,45,30.26,29.89,25,10,33,0.00
2013-11-20,37.3,30.0,24.8,17.6,13.7,8.6,71,51,30,30.61,30.26,17,5,22,0.00
2013-11-21,42.9,30.5,21.0,24.5,17.8,10.5,89,62,27,30.62,30.33,6,1,11,0.00
2013-11-22,38.0,35.4,31.2,38.0,33.2,22.4,100,92,66,30.32,29.76,10,1,12,0.07
2013-11-23,41.9,33.8,25.3,40.8,24.0,14.0,100,69,40,29.88,29.71,27,9,32,0.01
2013-11-24,25.3,19.3,15.7,15.2,4.9,-1.5,68,53,39,30.14,29.73,36,16,44,0.00
2013-11-25,26.7,20.3,14.1,14.9,1.1,-7.0,62,44,25,30.33,30.14,22,7,30,0.00
2013-11-26,32.7,29.2,25.4,31.3,25.0,13.2,98,85,57,30.28,30.08,12,3,15,0.06
2013-11-27,46.0,39.3,31.8,46.0,38.4,28.1,100,97,77,30.07,29.20,16,6,27,1.42
2013-11-28,34.9,26.1,17.8,28.3,13.2,1.7,78,59,37,30.39,29.35,26,12,37,0.00
2013-11-29,25.0,19.6,14.1,9.6,7.0,3.6,78,58,41,30.72,30.38,16,5,20,0.00
2013-11-30,28.1,19.6,9.7,16.9,10.5,6.1,88,69,46,30.80,30.40,12,1,15,0.00
2013-12-1,34.9,31.7,27.8,34.5,26.9,16.9,99,83,63,30.40,30.02,6,1,10,0.00
2013-12-2,39.8,36.1,33.2,35.9,34.1,31.8,100,92,83,30.02,29.89,4,1,9,0.00
2013-12-3,41.3,34.9,31.3,35.7,32.6,27.9,100,92,73,29.90,29.82,9,2,13,0.00
2013-12-4,38.3,32.7,28.5,28.4,25.0,21.4,91,74,60,30.16,29.90,14,4,19,0.00
2013-12-5,36.8,34.4,27.3,36.8,32.3,25.3,100,92,76,30.19,29.87,9,3,11,0.08
2013-12-6,44.1,39.7,32.5,42.9,34.6,25.0,100,83,55,30.10,29.81,19,3,25,0.10
2013-12-7,34.1,30.3,22.4,30.6,18.8,10.6,97,64,43,30.40,30.05,19,5,33,0.00
2013-12-8,27.0,23.9,19.1,14.6,10.9,7.6,78,58,44,30.54,30.40,15,2,20,0.00
2013-12-9,27.3,25.0,22.1,26.8,20.4,9.7,98,84,50,30.47,29.84,15,4,18,0.00
2013-12-10,33.7,28.1,19.9,30.3,23.3,9.2,99,83,54,29.89,29.72,20,5,23,0.01
2013-12-11,28.4,22.6,17.3,19.1,12.4,9.4,88,65,46,30.10,29.90,22,9,29,0.00
2013-12-12,19.5,12.9,8.1,11.7,2.2,-6.5,88,63,36,30.25,29.97,17,4,21,0.00
2013-12-13,22.1,13.5,4.8,13.0,3.0,-9.6,80,63,46,30.38,29.89,22,6,26,0.00
2013-12-14,12.9,7.5,1.8,6.4,-4.4,-11.6,84,58,36,30.60,30.29,10,4,19,0.00
2013-12-15,22.2,13.9,9.7,19.7,10.2,5.8,90,85,82,30.25,29.49,14,6,22,0.00
2013-12-16,20.6,14.9,4.5,8.2,-0.2,-7.0,66,51,39,30.19,29.88,29,11,36,0.00
2013-12-17,12.1,5.9,-5.6,8.5,-0.9,-11.0,86,73,53,30.27,30.01,10,2,13,0.00
2013-12-18,29.1,20.1,12.3,18.5,14.3,8.4,92,79,57,30.00,29.85,17,3,24,0.00
2013-12-19,35.5,28.8,21.6,27.2,22.3,18.7,94,77,56,30.04,29.88,11,3,16,0.04
2013-12-20,37.8,33.1,30.7,33.2,29.7,26.7,98,87,70,30.07,29.86,4,0,5,0.18
2013-12-21,39.9,35.4,33.1,37.2,34.6,32.0,100,97,85,29.89,29.81,5,0,7,0.42
2013-12-22,38.5,32.8,30.0,38.5,32.7,30.0,100,100,98,30.03,29.79,14,4,20,0.34
2013-12-23,35.5,31.8,29.5,35.0,31.6,29.2,100,99,93,30.07,29.95,6,1,11,0.16
2013-12-24,34.4,26.0,13.8,32.6,17.2,5.5,97,69,47,30.20,30.03,16,5,20,0.00
2013-12-25,17.2,10.8,4.7,8.8,1.0,-6.0,88,65,46,30.52,30.20,16,3,24,0.00
2013-12-26,23.5,16.8,11.2,21.5,13.8,8.4,94,88,75,30.48,30.07,5,1,6,0.00
2013-12-27,29.7,19.4,7.9,23.4,15.2,4.3,95,84,57,30.20,30.13,13,2,19,0.00
2013-12-28,37.2,27.6,11.7,32.3,24.0,8.6,99,86,74,30.15,29.93,12,3,15,0.04
2013-12-29,34.7,30.5,24.2,33.1,29.6,23.7,100,96,84,29.97,29.51,5,1,6,0.02
2013-12-30,35.2,24.3,5.6,34.3,19.3,-3.6,100,82,61,30.15,29.50,23,4,26,0.00
2013-12-31,14.4,5.7,-2.2,6.0,-2.1,-8.3,85,70,47,30.14,30.01,7,1,13,0.00
2014-1-1,18.6,9.6,0.3,9.0,2.4,-4.4,87,73,47,30.37,30.12,20,3,28,0.00
2014-1-2,10.5,4.9,-1.0,4.1,-1.1,-7.4,84,76,56,30.37,29.94,12,4,18,0.00